Weather in Roghun

Tajikistan     38°41′45″N   69°44′48″E
temp.,
°C
wind,
m/s
gust,
m/s
humid.,
%
clouds,
%
prec.,
mm/h
press.,
hPa
HPBL,
m
18 may, tue
tue1823:00+9nnw335231 0.0 101717
02:00+8n33520 0.0 101616
05:00+8n33530 0.0 101619
08:00+13ne23505 0.0 1016251
11:00+17e11422 0.0 1013927
14:00+19s233285 0.0 10112578
17:00+19ssw22373 0.1 10101908
20:00+13w22554 0.0 101211
19 may, wed
wed1923:00+11nw326132 0.1 101419
02:00+9nnw337052 0.7 101419
05:00+8nne337029 0.7 101422
08:00+13ne22620 0.3 1014238
11:00+19s343988 0.3 10113111
14:00+19sw45315 0.1 10112793
17:00+19sw23341 0.1 10102271
20:00+11ne226197 0.0 101212
20 may, thu
thu2023:00+11nnw3359100 0.0 101432
02:00+10n33573 0.0 101318
05:00+9n3356100 0.0 101421
08:00+14ne235295 0.0 1013269
11:00+19sse133629 0.0 10112023
14:00+20sw343687 0.1 10102612
17:00+14nnw346496 1.1 1015341
20:00+9nnw447774 0.3 101771
21 may, fri
fri2123:00+11nne337073 0.4 101656
02:00+9nne336796 0.0 101633
05:00+8nne336660 0.0 101735
08:00+13ne33534 0.0 1016298
11:00+18ene22401 0.0 10141124
14:00+20s333224 0.0 10112651
17:00+12wnw4472100 0.8 1015221
20:00+10ne338173 0.9 101754
22 may, sat
sat2223:00+9nne4586100 2.4 1018154
02:00+8ne3488100 0.8 101788
05:00+8nne348697 1.5 101669
08:00+12ne446699 0.3 1016403
11:00+16ene22545 0.8 1013838
14:00+19s3440100 0.5 10112781
17:00+16ne1257100 1.0 1012615
20:00+11nnw3382100 1.4 101563